RESURS-P 4

Last updated on Sat Mar 14 2026 00:02:37 GMT+0000 (Coordinated Universal Time)

1 59371U 24061A 26072.59702339 .00004890 00000+0 15601-3 0 9999 2 59371 97.2653 22.1857 0002187 56.0408 304.1043 15.32965422109122
UTC large
Height (km)
Speed (km/s)
/
Latitude / Longitude
Inclination (degrees)
Orbital Period (minutes)
Azimuth
Elevation
Range (km)
Doppler Factor

Next 0 passes for location: London (51.5072 / 0.1276)

Sorry there are no passes over London.